This demonstration page uses our WeatherBlox Daily Observations layout. Learn more.

Left ArrowRight Arrow

Hourly Observations for May 23, 2017

Temp ( °F °C ) Dew Point ( °F °C ) Humidity (%) Winds ( mph kmh ) Pressure ( in mb ) Visibility ( mi km ) Precip ( " mm )
12:54 am 00:54 Clear 56 13.3 49 9.4 77 77 NNW 15 24 29.93 1014 10 16.0934 0 0
1:54 am 01:54 Clear 54 12.2 47 8.3 77 77 NNW 13 20 29.94 1014 10 16.0934 0 0
2:54 am 02:54 Clear 53 11.7 46 7.8 77 77 NW 7 11 29.94 1014 10 16.0934 0 0
3:54 am 03:54 Clear 51 10.6 45 7.2 80 80 NW 6 9 29.94 1014 10 16.0934 0 0
4:54 am 04:54 Clear 50 10 44 6.7 80 80 NW 8 13 29.93 1014 10 16.0934 0 0
5:54 am 05:54 Clear 50 10 44 6.7 80 80 NW 10 17 29.94 1014 10 16.0934 0 0
6:54 am 06:54 Sunny 50 10 44 6.7 80 80 NW 8 13 29.95 1014 10 16.0934 0 0
7:54 am 07:54 Sunny 53 11.7 45 7.2 74 74 NNW 9 15 29.94 1014 10 16.0934 0 0
8:54 am 08:54 Mostly Sunny 57 13.9 44 6.7 62 62 NW 10 17 29.93 1014 10 16.0934 0 0
9:54 am 09:54 Cloudy 56 13.3 44 6.7 65 65 NNW 9 15 29.93 1014 10 16.0934 0 0
10:54 am 10:54 Mostly Cloudy 59 15 46 7.8 62 62 NNW 7 11 29.92 1013 10 16.0934 0 0
11:54 am 11:54 Cloudy 57 13.9 45 7.2 64 64 NNE 8 13 29.92 1013 10 16.0934 0 0
12:54 pm 12:54 Cloudy 56 13.3 45 7.2 67 67 N 9 15 29.89 1012 10 16.0934 0 0
1:54 pm 13:54 Mostly Cloudy 59 15 44 6.7 58 58 NW 9 15 29.87 1012 10 16.0934 0 0
2:54 pm 14:54 Cloudy 58 14.4 42 5.6 56 56 NNW 16 26 29.88 1012 10 16.0934 0 0
3:54 pm 15:54 Cloudy 57 13.9 44 6.7 62 62 NNW 21 33 29.88 1012 10 16.0934 0 0
4:54 pm 16:54 Cloudy 59 15 44 6.7 58 58 NNW 22 35 29.86 1011 10 16.0934 0 0
5:54 pm 17:54 Cloudy 55 12.8 49 9.4 80 80 NNW 10 17 29.88 1012 10 16.0934 0 0.0254
6:54 pm 18:54 Partly Cloudy 58 14.4 44 6.7 60 60 NNW 14 22 29.86 1011 10 16.0934 0 0
7:54 pm 19:54 Cloudy 54 12.2 47 8.3 77 77 N 13 20 29.87 1012 10 16.0934 0 0.0254
8:54 pm 20:54 Mostly Cloudy 54 12.2 47 8.3 77 77 NNW 12 19 29.86 1011 10 16.0934 0 0.0254
9:54 pm 21:54 Mostly Cloudy 53 11.7 45 7.2 74 74 NNW 17 28 29.87 1012 10 16.0934 0 0
10:54 pm 22:54 Cloudy 54 12.2 46 7.8 75 75 NNW 16 26 29.87 1012 10 16.0934 0 0
11:54 pm 23:54 Cloudy 53 11.7 45 7.2 74 74 NNW 17 28 29.86 1011 10 16.0934 0 0

Powered by AerisWeather